Home > Weather > Lahti > Past weeks

Flag for Finland Past Weather in Lahti, Finland — Yesterday and Last 2 Weeks

Now
72 °F

Scattered clouds.


Feels Like: 77 °F
Forecast: 57 / 72 °F
Wind: 9 mph from West

Location: Utti

Current Time: Jun 28, 2016 at 2:36:15 PM

Latest Report: Jun 28, 2016 at 2:20 PM


Visibility: N/A

Pressure: 29.89 "Hg

Humidity: 47%

Dew Point: 50 °F

Location of LahtiLocation

Past Weather in Lahti — Graph

°F

Lahti Temperature Yesterday

Maximum temperature yesterday: 70 °F (at 11:50 AM)
Minimum temperature yesterday: 59 °F (at 8:50 PM)
Average temperature yesterday: 65 °F

High & Low Weather Summary for the Past Weeks

 TemperatureHumidityPressure
High79 °F (Jun 26, 12:20 PM)100% (Jun 17, 12:50 AM)30.21 "Hg (Jun 17, 12:50 AM)
Low48 °F (Jun 14, 3:50 AM)20% (Jun 15, 3:20 PM)29.36 "Hg (Jun 18, 8:50 AM)
Average63 °F72%29.88 "Hg
* Reported Jun 13 1:20 PM — Jun 28 1:20 PM, Lahti, Weather by CustomWeather, © 2016

Note: Actual official high and low records may vary slightly from our data, if they occured in-between our weather recording intervals... More about our weather records

Advertising

Lahti Weather History for the Previous 24 Hours

Scroll right to see more
 ConditionsComfort  
Time TempWeatherWind HumidityBarometerVisibility
1:20 PM
Tue, Jun 28
70 °FPassing clouds.8 mph57%29.89 "HgN/A
12:50 PM70 °FScattered clouds.9 mph57%29.89 "HgN/A
12:20 PM68 °FScattered clouds.6 mph64%29.86 "HgN/A
11:50 AM66 °FScattered clouds.7 mph73%29.86 "HgN/A
11:20 AM64 °FPartly sunny.6 mph78%29.86 "HgN/A
10:50 AM64 °FPartly sunny.7 mph78%29.86 "HgN/A
10:20 AM63 °FScattered clouds.8 mph83%29.86 "HgN/A
9:50 AM63 °FPartly sunny.7 mph83%29.86 "HgN/A
9:20 AM61 °FBroken clouds.7 mph88%29.86 "HgN/A
8:50 AM61 °FPartly sunny.8 mph94%29.86 "HgN/A
8:20 AM61 °FPartly sunny.7 mph94%29.83 "HgN/A
7:50 AM59 °FLow clouds.6 mph94%29.83 "HgN/A
7:20 AM59 °FLow clouds.1 mph94%29.86 "Hg2 mi
6:50 AM57 °FDrizzle. Low clouds.1 mph100%29.83 "Hg4 mi
6:20 AM57 °FLow clouds.No wind100%29.83 "Hg2 mi
5:50 AM57 °FDrizzle. Low clouds.1 mph100%29.83 "Hg2 mi
5:20 AM57 °FMore clouds than sun.1 mph94%29.83 "Hg4 mi
4:50 AM57 °FLight rain. Fog.2 mph94%29.83 "Hg1 mi
4:20 AM57 °FSprinkles. Fog.2 mph94%29.83 "Hg2 mi
3:50 AM57 °FSprinkles. Low clouds.1 mph94%29.83 "Hg2 mi
3:20 AM57 °FRain showers. Low clouds.1 mph94%29.83 "Hg3 mi
2:50 AM57 °FSprinkles. Fog.5 mph94%29.83 "Hg2 mi
2:20 AM57 °FFog.6 mph94%29.83 "Hg2 mi
1:50 AM57 °FSprinkles. Fog.7 mph94%29.83 "Hg2 mi
1:20 AM57 °FLow clouds.8 mph94%29.83 "Hg3 mi
12:50 AM57 °FSprinkles. Low clouds.8 mph94%29.83 "Hg4 mi
12:20 AM57 °FLow clouds.8 mph94%29.83 "HgN/A
11:50 PM
Mon, Jun 27
59 °FOvercast.8 mph88%29.83 "HgN/A
11:20 PM59 °FOvercast.7 mph94%29.83 "HgN/A
10:50 PM59 °FLight rain. Overcast.8 mph94%29.83 "HgN/A
10:20 PM59 °FLight rain. Overcast.9 mph94%29.83 "Hg6 mi
9:50 PM59 °FRain. Overcast.7 mph94%29.83 "HgN/A
9:20 PM59 °FLight rain. Overcast.6 mph94%29.83 "HgN/A
8:50 PM59 °FRain. Overcast.5 mph94%29.83 "Hg5 mi
8:20 PM61 °FLight rain. Overcast.10 mph88%29.83 "HgN/A
7:50 PM64 °FOvercast.12 mph68%29.86 "HgN/A
7:20 PM64 °FSprinkles. Overcast.13 mph68%29.86 "HgN/A
6:50 PM64 °FSprinkles. Overcast.16 mph68%29.86 "HgN/A
6:20 PM64 °FLight rain. Overcast.15 mph68%29.86 "HgN/A
5:50 PM66 °FOvercast.10 mph60%29.86 "HgN/A
5:20 PM66 °FOvercast.7 mph60%29.86 "HgN/A
4:50 PM66 °FOvercast.13 mph60%29.86 "HgN/A
4:20 PM68 °FOvercast.14 mph56%29.86 "HgN/A
3:50 PM70 °FBroken clouds.14 mph53%29.86 "HgN/A
3:20 PM70 °FBroken clouds.14 mph53%29.86 "HgN/A
2:50 PM70 °FPartly sunny.13 mph53%29.86 "HgN/A
2:20 PM70 °FBroken clouds.13 mph53%29.86 "HgN/A
Weather by CustomWeather, © 2016

See weather overviewHow to use our weather pages